星链-32540 (STARLINK-32540)

导读 | 豆包AI

STARLINK-32540(星链-32540)是美国SpaceX星链互联网项目的低轨通信卫星,于2024年10月30日发射,当前在轨运行。它隶属于星链第二批部署任务,运行在近地轨道,采用Starlink V1.0平台,搭载先进推进系统与激光通信技术,服务全球高速互联网接入,助力扩大星座覆盖范围,为偏远、基础设施薄弱区域提供网络连接。

Basic Information
目录编号:
61723
目录名称:
STARLINK-32540
国际标识:
2024-196S
轨道中心:
EARTH
卫星名称:
星链-32540
卫星全名:
星链-32540 (STARLINK-32540)
卫星状态:
在轨 (已飞行547 天)
发射日期:
2024-10-30 UTC
国别 :
美国 (US)
星等 :
--
Orbit Information
数据来源 国际轨道数据 AOE轨道数据
星历时间 2026-04-30T21:16:03+0800
8小时前
查看轨道信息
2026-04-30T08:00:00+0800
22小时前
查看轨道信息
半长轴 6853.374km 6853.365km
偏心率 0.0000877 0.0001165
轨道倾角 53.159° 53.161°
近地点辐角 97.085° 47.504°
升交点赤经 184.624° 187.196°
平近点角 263.025° 145.585°
近地点 474.635km 474.429km
远地点 475.839km 476.027km
周期 94.106分钟 94.106分钟
每日圈数 15.301929 15.301959
Detailed Information
固有亮度:
5
最大亮度:
2.5
卫星平台:
Starlink V1.0
覆盖范围:
全球
运营商:
太空探索技术公司
运营商所在国:
美国
制造商(研发单位):
太空探索技术公司
制造商所在国:
美国
使用方式:
暂无
Satellite Introduction
Starlink 计划是 SpaceX 推出的全球卫星互联网项目,通过发射低轨道卫星,为全球尤其是偏远地区提供高速、低延迟的互联网服务。自 2019 年起,Starlink 已部署数千颗卫星,旨在缩小全球数字鸿沟,推动互联网普及。该项目还为军事、航空等行业提供通信支持,带来广泛经济效益。
2D Orbit Map
3D Orbit Map
Orbit Altitude Analysis Chart
Orbit Inclination Analysis Chart
Orbit Comprehensive Analysis Chart
View Comprehensive Chart